Jaffrey, NH

5:27 PM EDT on March 27, 2017 (GMT -0400)
Jaffrey Airport-Silver Ranch

Weather History for KAFN - August, 2014

Change the Weather History Date:

Monday, August 11, 2014

  Actual Average Record
Temperature  
Mean Temperature 68 °F -  
Max Temperature 84 °F 77 °F 90 °F (2002)
Min Temperature 55 °F 57 °F 44 °F (2007)
Cooling Degree Days 4    
Growing Degree Days 18 (Base 50)    
Moisture  
Dew Point 57 °F    
Average Humidity 67    
Maximum Humidity 97    
Minimum Humidity 36    
Precipitation  
Precipitation 0.00 in - - ()
Sea Level Pressure  
Sea Level Pressure 30.16 in    
Wind  
Wind Speed 2 mph (SW)    
Max Wind Speed 8 mph    
Max Gust Speed -    
Visibility 10 miles    
Events      
Averages and records for this station are not official NWS values.
T = Trace of Precipitation, MM = Missing Value Source: NWS Daily Summary

Daily Weather History Graph

Daily Weather History Graph

Search for Another Location

Airport or City:

Trip Planner

Search our weather history database for the weather conditions in past years. The results will help you decide how hot, cold, wet, or windy it might be!

Date:

Astronomy

Aug. 11, 2014 Rise Set
Actual Time 5:49 AM EDT 7:55 PM EDT
Civil Twilight 5:18 AM EDT 8:26 PM EDT
Nautical Twilight 4:40 AM EDT 9:04 PM EDT
Astronomical Twilight 3:58 AM EDT 9:46 PM EDT
Moon 8:18 PM EDT (8/11) 6:54 AM EDT (8/11)
Length of Visible Light 15h 07m
Length of Day
14h 05m
Full, 99% of the Moon is Illuminated
Aug 11
Full
Aug 17
Last Quarter
Aug 25
New
Sep 2
First Quarter
Sep 8
Full

Hourly Weather History & Observations

Time (EDT) Temp. Heat Index Dew Point Humidity Pressure Visibility Wind Dir Wind Speed Gust Speed Precip Events Conditions
12:52 AM 59.0 °F - 57.0 °F 93% 30.18 in 10.0 mi Calm Calm - N/A   Mostly Cloudy
1:52 AM 57.9 °F - 57.0 °F 97% 30.18 in 10.0 mi Calm Calm - N/A   Mostly Cloudy
2:52 AM 57.0 °F - 55.0 °F 93% 30.18 in 10.0 mi Calm Calm - N/A   Clear
3:52 AM 55.9 °F - 54.0 °F 93% 30.17 in 10.0 mi Calm Calm - N/A   Clear
4:52 AM 55.9 °F - 54.0 °F 93% 30.17 in 10.0 mi South 3.5 mph - N/A   Clear
5:52 AM 55.0 °F - 54.0 °F 96% 30.17 in 10.0 mi South 3.5 mph - N/A   Clear
6:52 AM 55.9 °F - 54.0 °F 93% 30.19 in 9.0 mi Calm Calm - N/A   Clear
7:52 AM 62.1 °F - 59.0 °F 90% 30.19 in 10.0 mi Calm Calm - N/A   Clear
8:52 AM 69.1 °F - 61.0 °F 75% 30.19 in 10.0 mi Calm Calm - N/A   Clear
9:52 AM 75.0 °F - 61.0 °F 62% 30.19 in 10.0 mi Calm Calm - N/A   Clear
10:52 AM 78.1 °F - 55.0 °F 45% 30.19 in 10.0 mi West 5.8 mph - N/A   Clear
11:52 AM 79.0 °F - 54.0 °F 42% 30.18 in 10.0 mi West 3.5 mph - N/A   Clear
12:52 PM 81.0 °F 80.4 °F 53.1 °F 38% 30.16 in 10.0 mi SSW 6.9 mph - N/A   Scattered Clouds
1:52 PM 82.0 °F 81.4 °F 55.0 °F 39% 30.16 in 10.0 mi SW 5.8 mph - N/A   Mostly Cloudy
2:52 PM 82.0 °F 81.3 °F 54.0 °F 38% 30.15 in 10.0 mi Calm Calm - N/A   Clear
3:52 PM 82.9 °F 81.8 °F 53.1 °F 36% 30.14 in 10.0 mi SSW 8.1 mph - N/A   Clear
4:52 PM 82.0 °F 81.3 °F 54.0 °F 38% 30.13 in 10.0 mi WSW 5.8 mph - N/A   Clear
5:52 PM 80.1 °F 80.1 °F 55.0 °F 42% 30.13 in 10.0 mi SW 3.5 mph - N/A   Clear
6:52 PM 79.0 °F - 59.0 °F 50% 30.13 in 10.0 mi Calm Calm - N/A   Clear
7:52 PM 73.9 °F - 61.0 °F 64% 30.14 in 10.0 mi SSW 4.6 mph - N/A   Clear
8:52 PM 71.1 °F - 61.0 °F 70% 30.15 in 10.0 mi South 4.6 mph - N/A   Clear
9:52 PM 70.0 °F - 61.0 °F 73% 30.15 in 10.0 mi Calm Calm - N/A   Clear
10:52 PM 69.1 °F - 61.0 °F 75% 30.15 in 10.0 mi SW 3.5 mph - N/A   Clear